2e Journée d'Automne

Compétition Départementale

CROIX

Le Dimanche 11 Octobre 2015

Bassin de 25m

100 Dos Dames

Séries

Nom Année Temps Pts Club Pays
1 LAGAE Chloé 1996 1:10:49 1097 CN CROIX FRA
2 DELOBEL Mélaine 1998 1:14:84 980 SO ARMENTIÈRES FRA
3 NOGE Lisa 1996 1:15:94 952 LILLE UC NATATION FRA
4 LEPERS Julia 2001 1:17:23 919 DAUPHINS WATTRELOS FRA
5 MAILLET Juliette 1999 1:19:87 854 CN CROIX FRA
6 LIAGRE Marielou 1999 1:20:07 849 DAUPHINS WATTRELOS FRA
7 GUERROUCHE Lina 1999 1:22:62 788 DAUPHINS WATTRELOS FRA
8 BERTOUT Leonie 1998 1:22:93 781 LILLE UC NATATION FRA
9 PROOT Adéle 2000 1:23:29 772 SO ARMENTIÈRES FRA
10 DUCOULOMBIER Louise 1999 1:23:80 761 CN CROIX FRA
11 BOUMAHDI Ines 2001 1:24:85 737 CN CROIX FRA
12 COUVREUR Clara 2001 1:25:22 728 SO ARMENTIÈRES FRA
13 GOBERT Eleonore 2000 1:26:02 710 DAUPHINS WATTRELOS FRA
14 SALINGUE Catherine 1979 1:27:25 683 CN CROIX FRA
15 JURKIW Clarisse 2000 1:27:66 674 SO ARMENTIÈRES FRA
16 BONNET Tara 2000 1:30:91 606 CN CROIX FRA
17 SPINA Carla 2001 1:31:38 596 CN CROIX FRA
18 CELEREAU Lola 2001 1:31:66 591 US RONCQ FRA
19 CHANGEUX Clémence 2001 1:32:02 583 SO ARMENTIÈRES FRA
20 SAVERYS Mélucine 2001 1:32:37 576 US RONCQ FRA
21 DERDOUM Sabrina 2002 1:33:67 551 CN CROIX FRA
22 MARTIN Solene 2002 1:35:14 522 SO ARMENTIÈRES FRA
23 BOUCHE Sergine 2001 1:36:41 498 US RONCQ FRA
24 PERCHE Fanny 1999 1:36:53 496 SO ARMENTIÈRES FRA
25 BARTH Louise 2001 1:43:56 374 SO ARMENTIÈRES FRA
26 SIX Hortense 2001 1:53:99 225 CN CROIX FRA
27 KHOUANE Linda 2000 1:54:34 221 CN CROIX FRA
28 KERSSE VERBEKE Paulette 1943 1:59:38 163 CN CROIX FRA
UNION SPORTIVE RONCQUOISE